#timestamp,LO_Frequency,Hit,StdDev 
1598576415.9,286046999.9,N
1598576435.7,286046999.7,N
1598576455.6,286047000.1,N
1598576475.4,286047002.3,N
1598576495.2,286047002.6,N
1598576515.1,286047002.2,N
1598576516.0,286047002.2,N
1598576535.8,286047004.4,Y
1598576555.7,286047000.6,P
1598576575.5,286047002.7,P
1598576595.3,286047002.6,N
1598576615.2,286047000.9,N
1598576635.0,286047000.7,N
1598576635.9,286047000.7,N
1598576655.8,286047002.1,N
1598576675.6,286047003.2,Y
1598576695.4,286047002.3,P
1598576715.3,286047001.0,N
1598576735.1,286047000.4,N
1598576755.8,286047000.3,N
1598576775.7,286047000.5,N
1598576795.5,286047001.1,N
1598576815.4,286047002.6,Y
1598576835.2,286047000.3,P
1598576855.0,286046999.8,N
1598576855.9,286046999.8,N
1598576875.8,286047001.2,N
1598576895.6,286047000.6,N
1598576915.4,286046998.9,N
1598576935.3,286046998.7,N
1598576955.1,286046998.1,N
1598576975.9,286046998.5,N
1598576995.7,286046998.2,N
1598577015.5,286047000.3,N
1598577035.4,286047000.1,N
1598577055.2,286047002.4,N
1598577075.0,286046999.7,N
1598577076.0,286046999.7,N
1598577095.8,286047002.0,N
1598577115.6,286047003.8,Y
1598577135.5,286047004.0,P
1598577155.3,286047003.7,N
1598577175.1,286047004.2,N
1598577195.9,286047003.8,N
1598577215.7,286047003.8,N
1598577235.6,286047001.8,N
1598577255.4,286047001.8,N
1598577275.2,286047004.1,N
1598577295.1,286047004.1,N
1598577296.0,286047004.1,N
1598577315.8,286047004.2,Y
1598577335.6,286047001.7,P
1598577355.5,286046999.7,N
1598577375.3,286047001.8,N
1598577395.2,286047002.2,N
1598577415.9,286047004.1,Y
1598577435.7,286047002.1,P
1598577455.6,286047002.7,P
1598577475.4,286047002.5,P
1598577495.2,286047002.1,Y
1598577515.1,286047001.0,P
1598577516.0,286047001.0,N
1598577535.8,286047000.0,N
1598577555.7,286047000.6,N
1598577575.5,286046998.5,N
1598577595.3,286047002.4,N
1598577615.2,286047000.7,N
1598577635.0,286047000.3,N
1598577635.9,286047000.3,N
1598577655.8,286046998.2,N
1598577675.6,286046998.7,N
1598577695.4,286046998.8,N
1598577715.3,286046999.2,N
1598577735.1,286046996.5,N
1598577755.8,286046996.5,N
1598577775.7,286046997.1,N
1598577795.5,286046998.3,N
1598577815.4,286046998.3,N
1598577835.2,286047000.4,N
1598577855.0,286047000.7,N
1598577855.9,286047000.7,N
1598577875.8,286047000.9,N
1598577895.6,286047000.0,N
1598577915.5,286047000.8,N
1598577935.3,286046998.3,N
1598577955.1,286046998.5,N
1598577975.9,286047000.7,N
1598577995.7,286046998.8,N
1598578015.5,286046999.4,N
1598578035.4,286046996.6,N
1598578055.2,286046998.8,N
1598578075.1,286046998.2,N
1598578076.0,286046998.2,N
1598578095.8,286047001.2,N
1598578115.6,286046996.6,N
1598578135.5,286046996.9,N
1598578155.3,286046996.5,N
1598578175.1,286046998.5,N
1598578195.9,286047000.8,N
1598578215.7,286047000.9,N
1598578235.6,286047000.9,N
1598578255.4,286047000.5,N
1598578275.2,286047002.7,N
1598578295.1,286047004.0,N
1598578296.0,286047004.0,N
1598578315.8,286047005.3,N
1598578335.6,286047005.8,N
1598578355.5,286047002.9,N
1598578375.3,286047003.3,N
1598578395.2,286047004.6,N
1598578415.9,286047004.9,N
1598578435.7,286047004.7,N
1598578455.6,286047003.5,N
1598578475.4,286047003.0,N
1598578495.2,286047005.4,N
1598578515.1,286047004.7,N
1598578516.0,286047004.7,N
1598578535.8,286047007.3,N
1598578555.7,286047005.1,N
1598578575.5,286047002.9,N
1598578595.3,286047004.9,N
1598578615.2,286047004.6,N
1598578635.0,286047004.6,N
1598578635.9,286047004.6,N
1598578655.8,286047005.0,N
1598578675.6,286047008.4,Y
1598578695.4,286047005.1,P
1598578715.3,286047005.2,P
1598578735.1,286047005.1,P
1598578755.8,286047007.3,Y
1598578775.7,286047001.3,P
1598578795.5,286047001.5,N
1598578815.4,286047000.6,N
1598578835.2,286046998.7,N
1598578855.0,286046998.9,N
1598578855.9,286046998.9,N
1598578875.8,286047000.5,N
1598578895.6,286046998.6,N
1598578915.4,286046997.9,N
1598578935.3,286046997.4,N
1598578955.1,286046998.4,N
1598578975.9,286047001.2,N
1598578995.7,286046999.4,N
1598579015.5,286046999.4,N
1598579035.4,286046998.7,N
1598579055.2,286046997.7,N
1598579075.0,286046999.6,N
1598579075.9,286046999.6,N
1598579095.8,286046999.5,N
1598579115.6,286047000.8,N
1598579135.5,286046996.9,N
1598579155.3,286046995.1,N
1598579175.1,286046995.8,N
1598579195.9,286046997.4,N
1598579215.7,286046999.6,N
1598579235.5,286046999.4,N
1598579255.4,286046996.5,N
1598579275.2,286046996.5,N
1598579295.1,286046997.1,N
1598579296.0,286046997.1,N
1598579315.8,286047001.1,N
1598579335.6,286046998.6,N
1598579355.5,286047000.6,N
1598579375.3,286047000.0,N
1598579395.2,286047002.7,N
1598579415.9,286047000.5,N
1598579435.7,286047002.5,N
1598579455.6,286047000.3,N
1598579475.4,286047001.2,N
1598579495.2,286047000.8,N
1598579515.1,286047000.6,N
1598579516.0,286047000.6,N
1598579535.8,286047001.1,N
1598579555.7,286047000.3,N
1598579575.5,286046998.1,N
1598579595.3,286047000.5,N
1598579615.2,286047001.1,N
1598579635.0,286047000.3,N
1598579635.9,286047000.3,N
1598579655.7,286046998.6,N
1598579675.6,286047000.7,N
1598579695.4,286046998.5,N
1598579715.3,286046999.1,N
1598579735.1,286046998.5,N
1598579736.0,286046998.5,N
1598579755.8,286046998.4,N
1598579775.7,286046998.1,N
1598579795.5,286046998.7,N
1598579815.4,286047000.5,N
1598579835.2,286047001.0,N
1598579855.0,286047000.1,N
1598579855.9,286047000.1,N
1598579875.8,286046999.7,N
1598579895.6,286047000.2,N
1598579915.4,286047001.9,N
1598579935.3,286047002.1,N
1598579955.1,286047001.4,N
1598579975.9,286047001.6,N
1598579995.7,286047004.0,Y
